User: anonymous   Login
Location: Caltech
(34.1382°N, 118.1253°W)
Time: 03:38:43
(UTC-07:00)
Language:

SL-16 R/B - Orbit

View from above orbital plane
View from above orbital plane
View from above satellite
View from above satellite

Ground track
Ground track

The orbit data is extracted from the following two-line orbital elements,

1 28353U 04021B   15183.46630291 -.00000103  00000-0 -28962-4 0  9994
2 28353 071.0016 139.3912 0006402 226.8654 133.1934 14.14161257570975
Epoch (UTC): 02 July 2015 11:11:28
Eccentricity: 0.0006402
inclination: 71.0016°
perigee height: 840 km
apogee height: 850 km
right ascension of ascending node: 139.3912°
argument of perigee: 226.8654°
revolutions per day: 14.14161257
mean anomaly at epoch: 133.1934°
orbit number at epoch: 57097

The dashed part of the orbit path shows where the satellite is in the earth's shadow,  

DLR